[[{"header":{"parameterUnit":"m.s-1","parameterCategory":1,"la1":30.2991,"la2":30.254,"lo1":-89.0895,"lo2":-89.0444,"dy":0.0017,"dx":0.0017,"nx":28,"ny":28,"refTime":"2025-02-10T09:00:00:Z","depth":0,"parameterNumber":2,"parameterNumberName":"U-component_of_WINDS"},"data":[0,0,0,0,0,0,0,0,0,0,0,0,0,0,0,0,0,0,0,0,0,0,0,0,0,0,0,0,0,0,0,0,0,0,0,0,0,0,0,0,0,0,0,0,0,0,0,0,0,0,0,0,0,0,0,0,0,0,-0.6753,-0.6752,0,-0.6728,-0.6728,-0.6727,-0.6719,-0.6719,-0.6719,-0.6719,-0.6693,-0.6693,-0.6692,0,0,0,0,0,0,0,0,0,0,0,0,0,-0.6791,-0.6791,-0.6753,-0.6752,-0.6752,-0.6728,-0.6728,-0.6727,-0.6719,-0.6719,-0.6719,-0.6719,-0.6694,-0.6693,-0.6692,0,0,0,0,0,0,0,0,0,0,0,0,0,-0.6771,-0.6791,-0.6753,-0.6745,-0.6744,-0.6728,-0.6728,-0.6727,-0.6719,-0.6719,-0.6719,-0.6719,-0.6694,-0.6693,-0.6692,-0.6681,0,0,-0.6688,-0.6688,0,0,0,0,0,0,0,0,-0.6773,-0.677,-0.6746,-0.6745,-0.6744,-0.6727,-0.6732,-0.6712,-0.6719,-0.6728,-0.6719,-0.6719,-0.6704,-0.6702,-0.6697,-0.668,-0.6679,-0.6688,-0.6687,-0.6687,-0.6686,0,0,0,0,0,0,0,-0.6774,-0.6771,-0.6743,-0.6746,-0.6745,-0.6742,-0.674,-0.6728,-0.6716,-0.6727,-0.6727,-0.6724,-0.6704,-0.6698,-0.6697,-0.6679,-0.6688,-0.6687,-0.6686,-0.6686,-0.6651,-0.6651,0,0,0,0,0,0,-0.6777,-0.6772,-0.6744,-0.6742,-0.6759,-0.6741,-0.6738,-0.6732,-0.6716,-0.6713,-0.6724,-0.6724,-0.67,-0.6698,-0.6696,-0.6682,-0.6687,-0.6686,-0.6685,-0.6652,-0.6651,-0.6651,0,0,0,0,0,0,-0.6778,-0.6774,-0.6745,-0.6757,-0.6753,-0.6741,-0.6734,-0.6732,-0.6726,-0.6713,-0.6711,-0.6721,-0.67,-0.6697,-0.6685,-0.6681,-0.6685,-0.6684,-0.6652,-0.6652,-0.6651,-0.6656,0,0,0,0,0,0,-0.6779,-0.6775,-0.6771,-0.6757,-0.6752,-0.6735,-0.6733,-0.6731,-0.6724,-0.6724,-0.671,-0.6707,-0.67,-0.6687,-0.6684,-0.668,-0.6683,-0.6652,-0.6652,-0.6651,-0.6656,-0.6655,-0.6655,0,0,0,0,0,-0.678,-0.6773,-0.6771,-0.6767,-0.6747,-0.6734,-0.6732,-0.6724,-0.6724,-0.672,-0.6711,-0.6708,-0.6682,-0.6686,-0.6682,-0.6678,-0.6652,-0.6652,-0.6651,-0.6656,-0.6655,-0.6655,0,0,0,0,0,0,-0.6787,-0.6771,-0.6768,-0.6757,-0.6747,-0.6733,-0.6728,-0.6724,-0.6714,-0.6714,-0.6704,-0.6701,-0.6689,-0.6682,-0.6686,-0.6667,-0.6667,-0.6666,-0.6671,-0.6671,-0.6671,-0.6673,-0.6682,0,0,0,0,0,-0.6787,-0.6778,-0.6765,-0.6756,-0.6751,-0.674,-0.6734,-0.6729,-0.6718,-0.6714,-0.6705,-0.6694,-0.6684,-0.6677,-0.6667,-0.6655,-0.6651,-0.665,-0.665,-0.6649,-0.6648,-0.6641,-0.664,-0.665,-0.665,-0.665,0,0,-0.6788,-0.6778,-0.6773,-0.6757,-0.6749,-0.6739,-0.6737,-0.6727,-0.672,-0.6712,-0.67,-0.6693,-0.6681,-0.6668,-0.6662,-0.6662,-0.6645,-0.6649,-0.6649,-0.6648,-0.664,-0.6639,-0.6638,-0.6649,-0.6649,-0.6649,0,0,-0.6783,-0.6775,-0.6766,-0.6758,-0.6746,-0.6738,-0.6736,-0.6723,-0.6718,-0.6705,-0.6699,-0.669,-0.6673,-0.6664,-0.6657,-0.6649,-0.6645,-0.6646,-0.6644,-0.6637,-0.6636,-0.6635,-0.6632,-0.6631,-0.6645,-0.6645,-0.6645,0,-0.6785,-0.6771,-0.6762,-0.6753,-0.6745,-0.6739,-0.6729,-0.6722,-0.6706,-0.6702,-0.6702,-0.6679,-0.667,-0.6655,-0.6653,-0.6648,-0.6645,-0.6647,-0.6637,-0.6636,-0.6635,-0.6632,-0.663,-0.6645,-0.6645,-0.6645,-0.6645,0,-0.6773,-0.6763,-0.6758,-0.6743,-0.6735,-0.6726,-0.6716,-0.6709,-0.6704,-0.6697,-0.6684,-0.6673,-0.666,-0.6656,-0.6651,-0.664,-0.664,-0.6639,-0.6639,-0.6635,-0.6631,-0.663,-0.6645,-0.6645,-0.6645,-0.6645,0,0,-0.6773,-0.6753,-0.6751,-0.6744,-0.673,-0.6722,-0.6712,-0.6699,-0.6693,-0.6683,-0.6674,-0.6658,-0.6657,-0.6649,-0.6643,-0.6637,-0.663,-0.6636,-0.6635,-0.6635,-0.6616,-0.6617,-0.6616,-0.6627,-0.6627,-0.6627,-0.6617,0,-0.6766,-0.6748,-0.674,-0.6725,-0.6716,-0.6709,-0.67,-0.669,-0.6682,-0.6673,-0.6665,-0.6654,-0.6653,-0.6648,-0.6641,-0.6632,-0.6626,-0.6633,-0.6618,-0.6618,-0.6621,-0.6614,-0.6615,-0.6606,-0.6616,-0.6615,-0.6615,0,-0.6756,-0.6746,-0.673,-0.6716,-0.6711,-0.6704,-0.6691,-0.6682,-0.667,-0.6665,-0.6656,-0.6651,-0.6639,-0.664,-0.6624,-0.6629,-0.6622,-0.6617,-0.6616,-0.6614,-0.6616,-0.6611,-0.6603,-0.6602,-0.6613,-0.6613,-0.6613,0,-0.6757,-0.6739,-0.6727,-0.6721,-0.6704,-0.6699,-0.6691,-0.668,-0.6672,-0.6661,-0.6656,-0.6644,-0.6637,-0.6628,-0.6618,-0.662,-0.6603,-0.6603,-0.6598,-0.6598,-0.6594,-0.6595,-0.6585,-0.6591,-0.6591,-0.6591,-0.6591,0,-0.675,-0.6741,-0.6726,-0.6719,-0.6708,-0.6699,-0.6688,-0.668,-0.667,-0.666,-0.6654,-0.6645,-0.6634,-0.6623,-0.6616,-0.6603,-0.6601,-0.6596,-0.6594,-0.6596,-0.6597,-0.6591,-0.6592,-0.6591,-0.6591,-0.6591,-0.6591,0,-0.6749,-0.6739,-0.6726,-0.6711,-0.6707,-0.6699,-0.6686,-0.6679,-0.6671,-0.6659,-0.6656,-0.6643,-0.6631,-0.6621,-0.6604,-0.66,-0.6586,-0.6584,-0.659,-0.6589,-0.6584,-0.6584,-0.657,-0.6567,-0.6576,-0.6576,-0.6576,0,-0.6745,-0.6738,-0.6722,-0.6715,-0.6708,-0.6697,-0.6689,-0.6679,-0.6672,-0.6657,-0.6651,-0.6638,-0.6627,-0.6607,-0.6597,-0.6584,-0.6581,-0.6577,-0.6579,-0.6582,-0.658,-0.6581,-0.658,-0.6577,-0.6577,-0.6577,-0.6577,0,-0.6739,-0.6734,-0.6724,-0.6711,-0.6702,-0.6691,-0.6681,-0.6676,-0.6664,-0.6655,-0.6642,-0.6634,-0.6617,-0.6604,-0.659,-0.6582,-0.6577,-0.6576,-0.6574,-0.6576,-0.6579,-0.6577,-0.6589,-0.6576,-0.6576,-0.6577,-0.6577,-0.6577,-0.6736,-0.6729,-0.6716,-0.6704,-0.6695,-0.6685,-0.6677,-0.6668,-0.6657,-0.6642,-0.6637,-0.6623,-0.6611,-0.6592,-0.6584,-0.6573,-0.6572,-0.657,-0.6569,-0.6568,-0.6568,-0.6582,-0.657,-0.657,-0.657,-0.657,-0.657,0,-0.6729,-0.6721,-0.671,-0.6695,-0.6685,-0.6681,-0.6669,-0.6661,-0.665,-0.6638,-0.6627,-0.6612,-0.6599,-0.6587,-0.6574,-0.6567,-0.6564,-0.6564,-0.6564,-0.6562,-0.6569,-0.6572,-0.6566,-0.6566,-0.6566,-0.6566,-0.6566,-0.6566,-0.6725,-0.6712,-0.6706,-0.6688,-0.6679,-0.6666,-0.6659,-0.6649,-0.664,-0.6623,-0.6613,-0.6605,-0.6593,-0.6579,-0.6566,-0.6563,-0.6558,-0.6558,-0.6554,-0.6561,-0.6562,-0.6562,-0.6565,-0.6557,-0.6557,-0.6547,-0.6547,-0.6547]},{"header":{"parameterUnit":"m.s-1","parameterCategory":1,"la1":30.2991,"la2":30.254,"lo1":-89.0895,"lo2":-89.0444,"dy":0.0017,"dx":0.0017,"nx":28,"ny":28,"refTime":"2025-02-10T09:00:00:Z","depth":0,"parameterNumber":3,"parameterNumberName":"V-component_of_WINDS"},"data":[0,0,0,0,0,0,0,0,0,0,0,0,0,0,0,0,0,0,0,0,0,0,0,0,0,0,0,0,0,0,0,0,0,0,0,0,0,0,0,0,0,0,0,0,0,0,0,0,0,0,0,0,0,0,0,0,0,0,4.0209,4.021,0,4.0317,4.0319,4.032,4.035,4.0349,4.0349,4.0348,4.0458,4.0461,4.0464,0,0,0,0,0,0,0,0,0,0,0,0,0,4.0028,4.0031,4.0209,4.021,4.0211,4.0317,4.0319,4.032,4.035,4.0349,4.0349,4.0348,4.0456,4.0461,4.0465,0,0,0,0,0,0,0,0,0,0,0,0,0,4.0118,4.0032,4.0208,4.0239,4.0243,4.0317,4.0319,4.0321,4.035,4.0349,4.0348,4.0348,4.0455,4.046,4.0465,4.0516,0,0,4.0481,4.0484,0,0,0,0,0,0,0,0,4.0113,4.0125,4.0233,4.0237,4.0242,4.0319,4.0295,4.0386,4.0351,4.0309,4.0348,4.0347,4.0412,4.0421,4.0443,4.0521,4.0526,4.0482,4.0485,4.0487,4.0489,0,0,0,0,0,0,0,4.0107,4.0121,4.0252,4.0235,4.024,4.0248,4.026,4.0313,4.0365,4.0313,4.0315,4.0328,4.0414,4.0438,4.0446,4.0527,4.0482,4.0486,4.0489,4.0492,4.0657,4.0658,0,0,0,0,0,0,4.0096,4.0115,4.0248,4.0255,4.0174,4.0252,4.0265,4.0295,4.0364,4.0374,4.0329,4.0329,4.043,4.044,4.045,4.0517,4.0487,4.0492,4.0495,4.0656,4.0657,4.0659,0,0,0,0,0,0,4.0092,4.0107,4.0244,4.0186,4.0204,4.0256,4.029,4.0298,4.0322,4.0376,4.0385,4.0343,4.0429,4.0443,4.0501,4.0521,4.0494,4.0499,4.0654,4.0656,4.0658,4.065,0,0,0,0,0,0,4.0086,4.0105,4.0125,4.0186,4.0207,4.0292,4.0291,4.0301,4.0331,4.0332,4.0392,4.0401,4.043,4.0493,4.0506,4.0528,4.0503,4.0653,4.0655,4.0658,4.0648,4.0651,4.0653,0,0,0,0,0,4.008,4.0116,4.0125,4.0141,4.0232,4.0293,4.0305,4.0337,4.0332,4.0353,4.0388,4.0399,4.0517,4.0498,4.0513,4.0537,4.0652,4.0655,4.0657,4.0647,4.0651,4.0653,0,0,0,0,0,0,4.0054,4.0125,4.0136,4.0193,4.0237,4.0298,4.0324,4.0339,4.0385,4.0384,4.0422,4.0435,4.0491,4.052,4.0498,4.0592,4.0585,4.059,4.0572,4.0575,4.0578,4.057,4.0508,0,0,0,0,0,4.0056,4.01,4.0159,4.0204,4.0226,4.0272,4.0299,4.0321,4.0367,4.0386,4.0425,4.047,4.0518,4.0548,4.0594,4.0653,4.0668,4.0677,4.0679,4.0681,4.0686,4.0724,4.073,4.0668,4.0668,4.0668,0,0,4.0058,4.0102,4.0127,4.02,4.0237,4.0283,4.0287,4.0333,4.0368,4.0393,4.0451,4.0482,4.0534,4.0594,4.0622,4.062,4.0707,4.0685,4.0686,4.069,4.0727,4.0733,4.0738,4.067,4.067,4.0669,0,0,4.0087,4.0124,4.0168,4.0205,4.0262,4.0292,4.0303,4.0363,4.0385,4.0444,4.0465,4.0507,4.0586,4.0624,4.0654,4.0702,4.0716,4.0716,4.073,4.0766,4.0771,4.0775,4.0796,4.0802,4.0721,4.0721,4.0721,0,4.0083,4.0153,4.0188,4.0236,4.0269,4.0295,4.0341,4.0375,4.0443,4.0465,4.0462,4.0566,4.0602,4.0674,4.0686,4.0708,4.0723,4.071,4.0767,4.0772,4.0777,4.0797,4.0804,4.0721,4.0721,4.0721,4.0721,0,4.0147,4.0196,4.0224,4.0292,4.0328,4.0374,4.0417,4.0449,4.0469,4.05,4.0563,4.0608,4.0666,4.0685,4.0702,4.076,4.0757,4.0759,4.0753,4.0782,4.0802,4.0809,4.0721,4.0721,4.0721,4.0721,0,0,4.0161,4.0251,4.0261,4.0294,4.036,4.0398,4.0447,4.0505,4.0534,4.058,4.0624,4.0693,4.0697,4.0731,4.0754,4.0785,4.0826,4.0785,4.0787,4.0794,4.0896,4.0895,4.0903,4.0834,4.0836,4.0837,4.0892,0,4.02,4.0289,4.0324,4.0397,4.0444,4.0472,4.0515,4.056,4.0592,4.0637,4.0672,4.0722,4.0722,4.0743,4.0776,4.0814,4.0847,4.081,4.0877,4.0879,4.0865,4.0912,4.0911,4.096,4.09,4.0901,4.0902,0,4.0257,4.0307,4.0385,4.045,4.0471,4.0509,4.0568,4.061,4.0664,4.0685,4.0725,4.0747,4.0801,4.0791,4.0867,4.0842,4.0871,4.0895,4.0897,4.0906,4.0893,4.0925,4.0976,4.0985,4.0914,4.0913,4.0912,0,4.0263,4.035,4.0409,4.0436,4.0512,4.0539,4.0572,4.0625,4.0659,4.071,4.0734,4.079,4.0821,4.0865,4.0902,4.089,4.0977,4.0968,4.0998,4.0997,4.1016,4.1014,4.1075,4.1031,4.1031,4.1031,4.103,0,4.0304,4.0351,4.0414,4.045,4.0505,4.0546,4.0599,4.0634,4.0682,4.0727,4.0753,4.0795,4.0841,4.0889,4.0919,4.098,4.0993,4.1013,4.1021,4.1012,4.101,4.1033,4.1032,4.1033,4.1032,4.1032,4.1031,0,4.032,4.0363,4.043,4.0498,4.0517,4.0554,4.0613,4.065,4.0685,4.0742,4.0757,4.0811,4.087,4.0912,4.0986,4.1007,4.1073,4.1079,4.1056,4.106,4.1089,4.1087,4.1168,4.1182,4.1126,4.1127,4.1127,0,4.0343,4.0381,4.0455,4.0488,4.0521,4.0573,4.0609,4.0652,4.0689,4.0756,4.0786,4.0846,4.0897,4.099,4.1036,4.1095,4.1104,4.1129,4.1113,4.1105,4.1109,4.1107,4.1113,4.1132,4.1132,4.1132,4.1133,0,4.0383,4.0404,4.0455,4.0516,4.056,4.0609,4.0659,4.0684,4.0736,4.0776,4.0838,4.0877,4.0956,4.1017,4.1081,4.1116,4.1134,4.1137,4.1148,4.114,4.1126,4.1138,4.1065,4.1135,4.1135,4.1135,4.1135,4.1135,4.0405,4.0442,4.0501,4.0559,4.0602,4.0649,4.0689,4.073,4.0782,4.0851,4.0872,4.0937,4.0994,4.1082,4.1118,4.117,4.1169,4.1183,4.1187,4.1191,4.1193,4.1117,4.1181,4.1181,4.1181,4.1181,4.1181,0,4.0448,4.0488,4.0542,4.0612,4.0659,4.0673,4.0731,4.0769,4.0826,4.0878,4.0929,4.1002,4.1062,4.1115,4.1178,4.121,4.1221,4.1226,4.1225,4.1234,4.1188,4.1174,4.1217,4.1217,4.1217,4.1217,4.1217,4.1217,4.0476,4.054,4.0569,4.0656,4.0696,4.0761,4.0793,4.0838,4.088,4.0961,4.1012,4.1047,4.11,4.1169,4.1226,4.124,4.1263,4.1267,4.1284,4.124,4.1236,4.1232,4.122,4.1271,4.1271,4.1326,4.1326,4.1326]}]]